Systeme des Energieumsatzes

Energieumsatz I

Prof. Dr.-Ing. Sauer, Erich

Dateibereich 21275

149,81 MB in 120 Dateien, zuletzt geändert am 12.12.2008

Dateiliste / Details

DateiDateien geändert amGröße
000Systeme_des_Energieumsatzes.pdf12.12.2008 11:52:381,86 MB
001Unterthemen_zu_Kursthema_12_I_Energieumsatz.PDF12.12.2008 11:52:39474,8 KB
002Beispiel_konkreter_technischer_Sachsysteme.PDF12.12.2008 11:52:401,89 MB
003Ausgewaehlte_Stoffwerte_fossiler_Primaerenergietraeger.pdf12.12.2008 11:52:4084,4 KB
004Zustandsformen_von_Energie.PDF12.12.2008 11:52:411,53 MB
005Prozessformen_von_Energie.PDF12.12.2008 11:52:421,35 MB
006Kraftwerke_sind_Energiewandler.PDF12.12.2008 11:52:423,26 MB
007Energiewandlungsketten_und Prozesse_in_Kraftwerken.PDF12.12.2008 11:52:44551,2 KB
008Elektrizitaetsfluss_1998_in_Millionen_kWh.PDF12.12.2008 11:52:441,44 MB
009Anteile_der_Energietraeger_an_der_Nettostromerzeugung.PDF12.12.2008 11:52:45246,2 KB
010Kundenanforderungen_und_Kraftwerkseinsatz_im_Verlauf.PDF12.12.2008 11:52:451006,5 KB
011Entgelte_fuer_die_Netznutzung.PDF12.12.2008 11:52:46322,6 KB
012Woher_kommt_Was_kostet_der Strom.PDF12.12.2008 11:52:46678,5 KB
013Stromverbrauch_nach_Kundengruppen_in_Prozent.PDF12.12.2008 11:52:46218 KB
014Darstellung_eines_technischen_Systems.pdf12.12.2008 11:52:46227,6 KB
015Schema_der_Solar_Wasserstoff_Technologie.PDF12.12.2008 11:52:471,51 MB
016Energieumwandlungskette.PDF12.12.2008 11:52:48739,2 KB
017Energiebegriffe_und_Energiefluss.PDF12.12.2008 11:52:48554,7 KB
018Stationen_der_Energieumwandlung_in_Waermek.pdf12.12.2008 11:52:481,03 MB
019Umwandlungsketten_und_Stationen_der_Energieumw.pdf12.12.2008 11:52:49811,9 KB
020Schema_der_Energieumwandlungen_Waermekraft_V_Kraft.pdf12.12.2008 11:52:49584 KB
021T_Q_Diagramm_fuer_1_kg_Wasser_bei_1_bar.pdf12.12.2008 11:52:50544,2 KB
022Schnitt_durch_eine_Dampfturbine_Schema_Wirkungsweise.pdf12.12.2008 11:52:50972,9 KB
023Schaltbild_einer_offenen Gasturbine_Einfache_Dampfkraft.pdf12.12.2008 11:52:51583,6 KB
024_67_MW_Gas_Turbine_V64_3A.pdf12.12.2008 11:52:51546,3 KB
025Funktionsskizze_eines_GUD_Blocks.pdf12.12.2008 11:52:52626,7 KB
026Die_T_QdurchT_Diagramme_des_ Dampf_und_Gas.pdf12.12.2008 11:52:52642,9 KB
027Isobare_Zustandsaenderung_des Wassers_im_Dampferzeuger.pdf12.12.2008 11:52:53702,1 KB
028Zustandsaenderungen_des_Wasserdampfs_einfache_D.pdf12.12.2008 11:52:53692,2 KB
029Einfache_Dampfkraftanlage_typische_Zahlenwerte.pdf12.12.2008 11:52:53596,9 KB
030Schaltplan_einer_Gasturbinenanlage.pdf12.12.2008 11:52:54505,1 KB
031Zustandsaenderungen_der_Luft_beim_Gasturbinenprozess.pdf12.12.2008 11:52:541,13 MB
032Geschlossene_Gasturbinenanlage_typische_Zahlenwerte.pdf12.12.2008 11:52:55607,5 KB
033Gas_im_Zylinder_als_Beispiel_Waermeaustauscher.pdf12.12.2008 11:52:55683,5 KB
034Zustandsflaeche_des_Wassers_in_perspektivischer_Darst.pdf12.12.2008 11:52:55532,9 KB
035p_T_Diagramm_mit_den_drei_Grenzkurven_der_Phasen.pdf12.12.2008 11:52:56573,7 KB
036p_v_theta_Flaeche_normale_Substanz_Wasser.pdf12.12.2008 11:52:56629,4 KB
037Abgeschlossenes_System_Ueberstroemprozess.pdf12.12.2008 11:52:57696,9 KB
038Schema_eines_offenen_Systems_Ausstroemen eines_Gases.pdf12.12.2008 11:52:57674,6 KB
039Fluid_mit_Schaufelrad.pdf12.12.2008 11:52:58625,7 KB
040Veranschaulichung_der_Volumenaenderungsarbeit_als.pdf12.12.2008 11:52:58445,5 KB
041Expansion_von_Luft_gegen_die_Wirkung_der_Atm.pdf12.12.2008 11:52:59581,2 KB
042Zustandsaenderungen_bei_Prozessen_eines_adiabaten_Systems.pdf12.12.2008 11:52:59379,3 KB
043Zur_Erlaeuterung_des_ Integrals_v_dp.pdf12.12.2008 11:53:001,80 MB
044Polytrope_Zustandsaenderungen.pdf12.12.2008 11:53:011,67 MB
045Zustandslinien_reversibler_Prozesse_im_T_s_Diagramm.pdf12.12.2008 11:53:02517,6 KB
046Isochore_und_Isobare_im_T_s_Diagramm_eines_idealen_Gases.pdf12.12.2008 11:53:02367,2 KB
047Isobaren_und_Isochoren_eines_ideales_Gases.pdf12.12.2008 11:53:02471,8 KB
048Energieumwandlungskette_am_Beispiel_Braunkohlenkraftwerk.pdf12.12.2008 11:53:031,62 MB
049Seitenansicht_Feuerung_Braunkohlenkraftwerk_Frim.pdf12.12.2008 11:53:042,85 MB
050Verbrennungsstufung_Braunkohlenkraftwerk_Weisweiler.pdf12.12.2008 11:53:06872,5 KB
051Brenneranordnung_bei_BENSON_Dampferzeugern.pdf12.12.2008 11:53:061,46 MB
052Blick_in_den_Feuerraum_eines_Dampferzeugers.pdf12.12.2008 11:53:072,07 MB
053Flammenausbildung_waehrend_der_Verbrennung.pdf12.12.2008 11:53:081,19 MB
054Herstellen_eines Gasgemisches_aus_idealen_Gasen_A_B_C.pdf12.12.2008 11:53:09594,3 KB
055Brennwerte_und_Heizwerte_chemisch_einheitlicher_Stoffe.pdf12.12.2008 11:53:09674,1 KB
056Heizwerte_verschiedener_Brennstoffe.pdf12.12.2008 11:53:09576,1 KB
057Kennwerte_fuer_Feuerraeume_von_Braunkohlendampferzeugern.pdf12.12.2008 11:53:10555,7 KB
058Dampferzeugerschema_Kraftwerk_Frimmersdorf.pdf12.12.2008 11:53:112,33 MB
059Anordnung_der_Beruehrungsheizflaechen_im_Dampferzeuger.pdf12.12.2008 11:53:12548 KB
060Beispielhafte_Rohranordnung_in_Buendelheizflaechen_bei.pdf12.12.2008 11:53:12510,3 KB
061Indirekter_Waermeaustausch_zwischen_zwei_stroemenden.pdf12.12.2008 11:53:12589,8 KB
062Waermeaufnahmen_der_Heizflaechen_in_Abhaengigkeit_von.pdf12.12.2008 11:53:13381,3 KB
063Kernkraftwerk_mit_Druckwasserreaktor.pdf12.12.2008 11:53:13837,7 KB
064Aktivitaetsbarrieren_beim_Druckwasserreaktor.pdf12.12.2008 11:53:14769,8 KB
065Neutronenabsorber_Absorptionsquerschnitte_fuer_v.pdf12.12.2008 11:53:14623,5 KB
066Neutronenbremsung_Bremseigenschaften_von_Moderatoren.pdf12.12.2008 11:53:15558,5 KB
067Neutronenerzeugung_Energiespektrum_der_Spaltneutronen.pdf12.12.2008 11:53:15420,8 KB
068Die_Bestandteile_des_Reaktorkernes.pdf12.12.2008 11:53:16664,1 KB
069Strahlverteilung_an_einer_Pelton_Schaufel.pdf12.12.2008 11:53:16496,9 KB
070Leitapparat_einer_Pelton_Turbine_Laufschaufel_Geschwind.pdf12.12.2008 11:53:17368,4 KB
071Axialschnitt_durch_eine_Turbinenstufe_und_Stroemung_durch.pdf12.12.2008 11:53:17350,1 KB
072Beschaufelung_von_Turbinenstufen_verschiedener_Reaktion.pdf12.12.2008 11:53:17571,6 KB
073Niederdruckschaufel_einer_Kondensationsturbine.pdf12.12.2008 11:53:18362 KB
074Elemente_und_T_s_Diagramm_des Speisewasser_Dampfkreislaufs.pdf12.12.2008 11:53:18665,6 KB
075Expansionsverlauf_bei_Sattdampfturbinen_mit_und_ohne.pdf12.12.2008 11:53:19521 KB
076Erzeugung_von_drei_um_je_120°_phasenverschobenen_Wechsel.pdf12.12.2008 11:53:19466,6 KB
077Temperaturverhaeltnisse_im_Kondensator.pdf12.12.2008 11:53:19501,1 KB
078Nasskuehlturmkreislauf_mit_Auslegungsdaten.pdf12.12.2008 11:53:20644,7 KB
079MOLLIER_h_x_Diagramm_fuer_feuchte_Luft_pL_1013_mbar.pdf12.12.2008 11:53:20690,9 KB
080Zustandsverlauf_im_h_x_Diagramm_von_Luft_und_Wasser_im.pdf12.12.2008 11:53:21457,8 KB
081Reversibler_Carnot_Prozess_im_T_s_Diagramm.pdf12.12.2008 11:53:21486,6 KB
082Einfache_Dampfkraftanlage_schematisch.pdf12.12.2008 11:53:21459,6 KB
083Isobare_Zustandsaenderung_des Wassers_im_Dampferzeug.pdf12.12.2008 11:53:22500,7 KB
084Verschiebung_des_Abdampfzustandes_3_durch _Erhoehung.pdf12.12.2008 11:53:22425,1 KB
085Schaltbild_einer_Dampfkraftanlage_mit_Zwischenueberhitzung.pdf12.12.2008 11:53:23362,3 KB
086Zustandsaenderungen_des_Wasserdampfes_beim_Prozess_mit.pdf12.12.2008 11:53:23589,7 KB
087Modell_einer_Dampfkraftanlage_mit_Speisewasservorwaermer.pdf12.12.2008 11:53:23475,9 KB
088Zustandsaenderungen_des_Wassers_und_des_Entnahmedampfes.pdf12.12.2008 11:53:24748 KB
089Schema_der_regenerativen_Luftvorwaermung_durch_das_Abgas.pdf12.12.2008 11:53:24500,8 KB
090Gasturbinenanlage_mit_Abhitzekessel_und_nachgeschalteter.pdf12.12.2008 11:53:25385,8 KB
091Funktionsschema_eines_Gas_und_Dampfturbinenkraftwerks.pdf12.12.2008 11:53:25492,7 KB
092Wirkungsgrade_verschiedener_Kraftwerksprozesse.pdf12.12.2008 11:53:25458,6 KB
093Zusaetzliche_Kohlevergasung.pdf12.12.2008 11:53:26438 KB
094Aufbau_GuD_Anlage_Ludwigshafen.pdf12.12.2008 11:53:261,29 MB
095Technische_Daten_Kombikraftwerk_bei_einer_Aussentemp.pdf12.12.2008 11:53:27552,5 KB
096Prinzipschaltbild_einer_Kompressions_Waermepumpe.pdf12.12.2008 11:53:27548,8 KB
097Schema_einer_Waermepumpe_Energieflussbild_der.pdf12.12.2008 11:53:281003,5 KB
098Schema_einer_Grundwasser_Waermepumpenanlage.pdf12.12.2008 11:53:28955,2 KB
099Waermequellen_fur_Waermepumpen.pdf12.12.2008 11:53:29789,8 KB
100Umgebungsluft_Waermepumpe.pdf12.12.2008 11:53:303,08 MB
101Der_Waermepumpenkreisprozess_ im_T_Q_durch_T.pdf12.12.2008 11:53:31486 KB
102Linkslaeufiger_Carnot_Prozess_im_T_S_Diagramm.pdf12.12.2008 11:53:31504,2 KB
103p_h_Diagramm_p_im_logarithmischen_Massstab.pdf12.12.2008 11:53:32592,2 KB
104Der_ideale_und_reale_Waermepumpenkreisprozess.pdf12.12.2008 11:53:32517,9 KB
105Realprozess_mit_Unterkuehlung_im_log_p_h_Diagramm.pdf12.12.2008 11:53:33387,9 KB
106TTVideo.wmv12.12.2008 11:53:3953,29 MB
107Energieflussdiagramm_fuer_elektromotorisch_a_W.pdf12.12.2008 11:53:57471,8 KB
108Energieflussdiagramm_fuer_gasmotorisch_a_K_W.pdf12.12.2008 11:53:58492 KB
109Primaerenergienutzungsgrad_PEN_fuer_Waermepum.pdf12.12.2008 11:53:58631,7 KB
110Dampfdruckkurven_verschiedener_Arbeitsmedien_im.pdf12.12.2008 11:53:59682,4 KB
111Vergleich_ausgewaehlter_Eigenschaften_einiger_Arb.pdf12.12.2008 11:53:59611,1 KB
112Schema_einer_Kaelteanlage_Schematische_Darstell.pdf12.12.2008 11:54:00637,9 KB
113Schaltbild_einer_Kaltdampf_Kaeltemaschine_Kreispr.pdf12.12.2008 11:54:00367,4 KB
114Kompressions_Kuehlschrank.pdf12.12.2008 11:54:01811,4 KB
115logp_h_Diagramm_fuer_R717_Ammoniak_NH3.pdf12.12.2008 11:54:011,40 MB
116logp_h_Diagramm_fuer_Ammoniak_mit_Werten_tC.pdf12.12.2008 11:54:021,41 MB
117Realer_Prozess_mit_den_wichtigsten_Verlustq.pdf12.12.2008 11:54:03675,9 KB
118Windenergie.ppt12.12.2008 11:54:045,39 MB
119Fotovoltaik.PPT12.12.2008 11:54:061,20 MB
In der zweistündigen Pflichtvorlesung „Systeme des Energieumsatzes“ des Hauptstudiums für den Lehramtsstudiengang Sekundarstufe II (SII, GyGe) im Fach „Technik“ an allgemein bildenden Schulen werden folgende Schwerpunkte behandelt: 0 Einführung 1 Aufgaben energieumsetzender Systeme 2 Grundlagen der Energieumwandlung 3 Energieumwandlung in thermische, innere, kinetische und elektrische Ener-gie 4 Wärmeübertragung 5 Thermisches Kraftwerk und Kreisprozesse im T,s-Diagramm 6 Thermisches Kraftwerk mit GUD-Prozess 7 Linksläufige Kreisprozesse 8 Die Brennstoffzelle als neue Energietechnik 9 Regenerative Energien als additive Energieversorgung und -einsparung 10 Literaturverzeichnis Ziel der zweistündigen Vorlesung ist es, energieumsetzende Systeme in den für Wirtschaft und Gesellschaft bedeutenden Bereichen mit Beispielen zu erläutern.
Keine URN zugeordnet
Lesezeichen:
Permalink | Teilen/Speichern
Dokumententyp:
Lehrmaterial » Vorlesungsskript, Vorlesungsfolien
Fakultät / Institut:
Fakultät für Ingenieurwissenschaften » Bauwissenschaften » Lehramt Technik » Technoligie und Didaktik der Technik
Stichwörter:
Energieumsatz, Energieumwandlungsketten, Wärmeübertragung, thermisches Kraftwerk, GuD, Linksläufige Prozesse, Brennstoffzelle, Regenerative Energie
Beitragender:
Hasche, Hauke [Beitragende(r)]
Sprache:
Deutsch
Kollektion / Status:
Lehr- und Lernmaterial / Dokument veröffentlicht
Dokument erstellt am:
09.03.2005
Dateien geändert am:
12.12.2008
Medientyp:
Text; Audio; Animation / Simulation; Video